Regional Weather Roundup
Issued by NWS

Home | Current Version | Previous Version | Graphics & Text | Print | Product List | Glossary On
Versions: 1 2 3 4 5 6 7 8 9 10 11 12 13 14 15 16 17 18 19 20 21 22 23 24 25 26 27 28 29 30 31 32 33 34 35 36 37 38 39 40 41 42 43 44 45 46 47 48 49 50
000
ASUS43 KDTX 160310
RWRMI
MICHIGAN HOURLY REGIONAL WEATHER ROUNDUP
NATIONAL WEATHER SERVICE DETROIT/PONTIAC MI
1100 PM EDT TUE AUG 15 2017

NOTE: "FAIR" INDICATES FEW OR NO CLOUDS BELOW 12,000 FEET WITH NO
SIGNIFICANT WEATHER AND/OR OBSTRUCTION TO VISIBILITY.

MIZ047>049-052>055-059>063-066>070-074>076-081>083-160400-
SOUTHEAST LOWER MICHIGAN

CITY           SKY/WX    TMP DP  RH WIND       PRES   REMARKS
ADRIAN         CLOUDY    69  62  78 NE3       29.99R
ALMA           CLOUDY    60  58  92 CALM      29.99R
ANN ARBOR      CLOUDY    67  62  84 CALM      29.99R
BAD AXE        CLEAR     59  56  91 CALM      30.00R
CARO           PTCLDY    62  58  86 CALM      29.99R
DETROIT CITY   PTCLDY    69  60  73 E3        30.00R
DETROIT        PTCLDY    72  63  73 E3        30.00R
FLINT          CLOUDY    69  60  73 E3        29.99R
GROSSE ILE     PTCLDY    70  63  77 NE6       29.98R
HILLSDALE      CLOUDY    64  61  88 CALM      29.99R
HOWELL         CLOUDY    66  60  82 CALM      30.00R

CITY           SKY/WX    TMP DP  RH WIND       PRES   REMARKS
JACKSON          N/A    N/A N/A N/A MISG      29.99R
LAMBERTVILLE   CLOUDY    67  63  86 CALM      29.97R
LANSING        CLOUDY    67  59  75 CALM      29.99R
LAPEER         FAIR      63  60  90 CALM      30.00R
MASON          CLOUDY    66  63  88 CALM      29.99S
MONROE         CLOUDY    70  65  85 NE5       29.98R
MT. CLEMENS    PTCLDY    65  59  81 N2        29.98R
PONTIAC        CLOUDY    69  62  78 E3        30.00R
PORT HOPE        N/A     62  59  90 CALM      29.98S
PORT HURON     CLEAR     59  57  94 CALM      29.99S
TRI CITIES     CLEAR     68  63  84 E3        29.99R
MIDLAND        FAIR      63  61  94 CALM      29.98R
TROY           CLOUDY    71  58  64 NE5       30.02R
SAGINAW HB     CLEAR     64  59  82 CALM      29.99R
$$
MIZ043>046-050>051-056>058-064>065-071>073-077>080-160400-
SOUTHWEST LOWER MICHIGAN

CITY           SKY/WX    TMP DP  RH WIND       PRES   REMARKS
BATTLE CREEK   CLOUDY    71  65  81 CALM      29.99R
BENTON HARBOR  CLEAR     66  62  87 CALM      29.98R
BIG RAPIDS     CLOUDY    64  58  80 CALM      30.00S
COLDWATER      CLOUDY    68  67  95 CALM      29.98R
FREMONT        FAIR      64  60  86 N6        29.99S
HOLLAND        PTCLDY    70  59  68 N6        29.99R
GRAND RAPIDS   CLOUDY    69  61  75 N7        29.98R
IONIA          CLOUDY    69  59  69 CALM      29.99R
KALAMAZOO      CLOUDY    69  62  78 CALM      29.99R
LUDINGTON      PTCLDY    59  57  92 CALM      30.00R
MARSHALL       CLOUDY    68  67  98 CALM      29.98R
MOUNT PLEASANT MOCLDY    67  63  87 CALM      30.00R
MUSKEGON       CLOUDY    68  60  75 N7        29.99R
SOUTH HAVEN    PTCLDY    64  62  93 CALM      29.99R
$$
MIZ016>042-160400-
NORTHERN LOWER MICHIGAN

CITY           SKY/WX    TMP DP  RH WIND       PRES   REMARKS
ALPENA         CLEAR     64  59  83 NW6       30.01R
BEAVER ISLAND  CLOUDY    62  58  88 CALM      30.03S
BELLAIRE       CLOUDY    57  55  94 CALM      30.02R
CADILLAC       CLOUDY    63  55  76 NE5       30.03R
CHARLEVOIX     CLOUDY    66  61  83 N9        30.04S
FRANKFORT      CLOUDY    62  61  95 CALM      30.01R
GAYLORD        CLOUDY    60  54  80 CALM      30.04R
GRAYLING       CLOUDY    60  55  84 CALM      30.03R
HARBOR SPRINGS CLOUDY    61  59  94 CALM      30.01S
HOUGHTON LAKE  CLOUDY    63  58  83 N5        30.02R
OSCODA         CLEAR     62  60  93 CALM      29.99R
PELLSTON       CLEAR     58  57  97 CALM      30.02R
ROGERS CITY    CLEAR     62  59  91 CALM      30.02S
TRAVERSE CITY  CLOUDY    62  57  83 CALM      30.00R
$$
MIZ007>008-015-160400-
EASTERN UPPER MICHIGAN

CITY           SKY/WX    TMP DP  RH WIND       PRES   REMARKS
KINROSS        CLEAR     59  57  93 NW7       30.03R
MACKINAC ISLAN CLEAR     62  59  90 N10       30.02S
NEWBERRY       CLEAR     55  55  97 NW3       30.04S
S. S. MARIE    CLEAR     62  58  86 NW5       30.02R
MUNISING         N/A     57  57 100 W3        30.04S
$$
MIZ004>006-011>014-085-160400-
CENTRAL UPPER MICHIGAN

CITY           SKY/WX    TMP DP  RH WIND       PRES   REMARKS
MANISTIQUE     CLOUDY    54  48  81 N6        30.03S
ESCANABA       CLOUDY    61  56  83 NE8       30.03R
MENOMINEE      CLOUDY    64  58  80 E6        30.01S
SAWYER-GWINN   CLOUDY    53  52  96 NE7       30.04F
$$
MIZ001>003-009>011-084-160400-
WESTERN UPPER MICHIGAN

CITY           SKY/WX    TMP DP  RH WIND       PRES   REMARKS
IRON MOUNTAIN  CLOUDY    62  54  74 E5        30.02R
HOUGHTON       CLEAR     51  49  92 E3        30.04S
COPPER HARBOR    N/A     53  50  89 SW6       30.05R
IRONWOOD       CLOUDY    56  53  90 E5        30.02F
$$

ABBREVIATIONS USED IN REMARKS
   TC - TEMPERATURE IN CELSIUS
  WCI - WIND CHILL INDEX
   HX - HEAT INDEX
  VSB - VISIBILITY





USA.gov is the U.S. government's official web portal to all federal, state and local government web resources and services.